Time,TemperatureF,DewpointF,PressureIn,WindDirection,WindDirectionDegrees,WindSpeedMPH,WindSpeedGustMPH,Humidity,HourlyPrecipIn,Conditions,Clouds,dailyrainin,SoftwareType,DateUTC
2013-05-08 00:01:00,59.0,52.6,29.71,NNW,338,0.0,0.0,79,0.00,,,0.00,WUHU216HW,2013-05-08 07:01:00,
2013-05-08 00:06:00,59.0,52.6,29.71,WNW,293,0.0,0.9,79,0.00,,,0.00,WUHU216HW,2013-05-08 07:06:00,
2013-05-08 00:11:00,59.0,52.9,29.71,WSW,248,0.4,0.9,80,0.00,,,0.00,WUHU216HW,2013-05-08 07:11:00,
2013-05-08 00:16:00,59.0,52.9,29.71,WSW,248,0.0,0.4,80,0.00,,,0.00,WUHU216HW,2013-05-08 07:16:00,
2013-05-08 00:21:00,59.0,53.3,29.71,WSW,248,0.0,0.4,81,0.00,,,0.00,WUHU216HW,2013-05-08 07:21:00,
2013-05-08 00:26:00,59.2,53.5,29.71,NW,315,0.0,0.9,81,0.00,,,0.00,WUHU216HW,2013-05-08 07:26:00,
2013-05-08 00:31:00,59.2,53.5,29.71,NW,315,0.0,0.9,81,0.00,,,0.00,WUHU216HW,2013-05-08 07:31:00,
2013-05-08 00:36:00,59.2,53.7,29.71,NE,45,0.7,0.9,82,0.00,,,0.00,WUHU216HW,2013-05-08 07:36:00,
2013-05-08 00:41:00,59.0,53.3,29.72,WNW,293,1.6,1.6,81,0.00,,,0.00,WUHU216HW,2013-05-08 07:41:00,
2013-05-08 00:46:00,59.2,53.7,29.72,North,0,1.1,2.0,82,0.00,,,0.00,WUHU216HW,2013-05-08 07:46:00,
2013-05-08 00:51:00,59.4,53.9,29.72,West,270,0.7,2.5,82,0.00,,,0.00,WUHU216HW,2013-05-08 07:51:00,
2013-05-08 00:56:00,59.6,54.5,29.72,West,270,1.1,2.5,83,0.00,,,0.00,WUHU216HW,2013-05-08 07:56:00,
2013-05-08 01:01:00,59.8,54.6,29.71,NW,315,0.9,1.8,83,0.00,,,0.00,WUHU216HW,2013-05-08 08:01:00,
2013-05-08 01:06:00,59.8,54.6,29.71,WNW,293,0.2,1.8,83,0.00,,,0.00,WUHU216HW,2013-05-08 08:06:00,
2013-05-08 01:11:00,59.8,54.6,29.71,WSW,248,1.3,1.6,83,0.00,,,0.00,WUHU216HW,2013-05-08 08:11:00,
2013-05-08 01:16:00,59.8,54.6,29.71,West,270,1.6,2.0,83,0.00,,,0.00,WUHU216HW,2013-05-08 08:16:00,
2013-05-08 01:21:00,59.8,54.6,29.71,West,270,0.9,2.0,83,0.00,,,0.00,WUHU216HW,2013-05-08 08:21:00,
2013-05-08 01:26:00,59.8,54.6,29.71,NW,315,1.1,1.8,83,0.00,,,0.00,WUHU216HW,2013-05-08 08:26:00,
2013-05-08 01:31:00,59.8,54.6,29.71,West,270,3.1,3.1,83,0.00,,,0.00,WUHU216HW,2013-05-08 08:31:00,
2013-05-08 01:36:00,59.8,54.6,29.71,WSW,248,1.8,3.1,83,0.00,,,0.00,WUHU216HW,2013-05-08 08:36:00,
2013-05-08 01:41:00,59.8,54.6,29.71,West,270,0.0,3.1,83,0.00,,,0.00,WUHU216HW,2013-05-08 08:41:00,
2013-05-08 01:46:00,59.8,54.6,29.71,West,270,0.7,2.5,83,0.00,,,0.00,WUHU216HW,2013-05-08 08:46:00,
2013-05-08 01:51:00,59.8,54.6,29.71,WSW,248,2.5,2.5,83,0.00,,,0.00,WUHU216HW,2013-05-08 08:51:00,
2013-05-08 01:56:00,59.8,54.6,29.71,SW,225,0.9,2.9,83,0.00,,,0.00,WUHU216HW,2013-05-08 08:56:00,
2013-05-08 02:01:00,59.8,54.6,29.71,NNW,338,1.1,2.9,83,0.00,,,0.00,WUHU216HW,2013-05-08 09:01:00,
2013-05-08 02:06:00,59.8,54.9,29.71,WNW,293,2.0,2.0,84,0.00,,,0.00,WUHU216HW,2013-05-08 09:06:00,
2013-05-08 02:11:00,59.6,54.7,29.71,NNW,338,0.0,2.5,84,0.00,,,0.00,WUHU216HW,2013-05-08 09:11:00,
2013-05-08 02:16:00,59.4,54.5,29.71,West,270,0.7,2.5,84,0.00,,,0.00,WUHU216HW,2013-05-08 09:16:00,
2013-05-08 02:21:00,59.4,54.3,29.70,WNW,293,0.4,1.3,83,0.00,,,0.00,WUHU216HW,2013-05-08 09:21:00,
2013-05-08 02:26:00,59.2,54.1,29.70,NNW,338,0.2,1.1,83,0.00,,,0.00,WUHU216HW,2013-05-08 09:26:00,
2013-05-08 02:31:00,59.2,54.1,29.70,NNW,338,0.9,1.6,83,0.00,,,0.00,WUHU216HW,2013-05-08 09:31:00,
2013-05-08 02:36:00,59.0,53.9,29.71,North,0,0.2,1.6,83,0.00,,,0.00,WUHU216HW,2013-05-08 09:36:00,
2013-05-08 02:41:00,59.0,53.9,29.71,West,270,0.0,1.6,83,0.00,,,0.00,WUHU216HW,2013-05-08 09:41:00,
2013-05-08 02:46:00,59.0,53.9,29.71,NW,315,1.8,2.0,83,0.00,,,0.00,WUHU216HW,2013-05-08 09:46:00,
2013-05-08 02:51:00,58.9,53.7,29.71,NW,315,0.0,2.0,83,0.00,,,0.00,WUHU216HW,2013-05-08 09:51:00,
2013-05-08 02:56:00,58.9,53.7,29.71,NW,315,0.0,1.8,83,0.00,,,0.00,WUHU216HW,2013-05-08 09:56:00,
2013-05-08 03:01:00,58.7,53.6,29.71,NW,315,0.0,0.7,83,0.00,,,0.00,WUHU216HW,2013-05-08 10:01:00,
2013-05-08 03:06:00,58.7,53.6,29.71,SW,225,0.4,0.7,83,0.00,,,0.00,WUHU216HW,2013-05-08 10:06:00,
2013-05-08 03:11:00,58.7,53.6,29.71,NNW,338,0.7,0.9,83,0.00,,,0.00,WUHU216HW,2013-05-08 10:11:00,
2013-05-08 03:16:00,58.7,53.6,29.71,West,270,0.0,0.9,83,0.00,,,0.00,WUHU216HW,2013-05-08 10:16:00,
2013-05-08 03:21:00,58.7,53.6,29.71,West,270,0.4,0.9,83,0.00,,,0.00,WUHU216HW,2013-05-08 10:21:00,
2013-05-08 03:26:00,58.5,53.6,29.71,WSW,248,0.2,0.9,84,0.00,,,0.00,WUHU216HW,2013-05-08 10:26:00,
2013-05-08 03:31:00,58.5,53.6,29.71,West,270,0.0,1.8,84,0.00,,,0.00,WUHU216HW,2013-05-08 10:31:00,
2013-05-08 03:36:00,58.3,53.5,29.71,West,270,0.0,1.8,84,0.00,,,0.00,WUHU216HW,2013-05-08 10:36:00,
2013-05-08 03:41:00,58.3,53.5,29.71,WSW,248,0.0,0.7,84,0.00,,,0.00,WUHU216HW,2013-05-08 10:41:00,
2013-05-08 03:46:00,58.3,53.5,29.71,NW,315,1.1,1.3,84,0.00,,,0.00,WUHU216HW,2013-05-08 10:46:00,
2013-05-08 03:51:00,58.1,53.3,29.71,NNW,338,0.0,1.3,84,0.00,,,0.00,WUHU216HW,2013-05-08 10:51:00,
2013-05-08 03:56:00,58.0,53.1,29.71,NW,315,0.0,1.3,84,0.00,,,0.00,WUHU216HW,2013-05-08 10:56:00,
2013-05-08 04:01:00,58.0,53.1,29.71,NW,315,0.2,1.1,84,0.00,,,0.00,WUHU216HW,2013-05-08 11:01:00,
2013-05-08 04:06:00,58.0,53.1,29.71,NW,315,0.0,1.1,84,0.00,,,0.00,WUHU216HW,2013-05-08 11:06:00,
2013-05-08 04:11:00,57.8,52.9,29.71,NW,315,0.0,1.3,84,0.00,,,0.00,WUHU216HW,2013-05-08 11:11:00,
2013-05-08 04:16:00,57.8,52.9,29.71,North,0,0.0,1.3,84,0.00,,,0.00,WUHU216HW,2013-05-08 11:16:00,
2013-05-08 04:21:00,57.6,53.1,29.71,NNW,338,0.0,1.1,85,0.00,,,0.00,WUHU216HW,2013-05-08 11:21:00,
2013-05-08 04:26:00,57.4,52.9,29.71,NNW,338,0.0,1.1,85,0.00,,,0.00,WUHU216HW,2013-05-08 11:26:00,
2013-05-08 04:31:00,57.2,52.7,29.71,NNW,338,0.0,0.0,85,0.00,,,0.00,WUHU216HW,2013-05-08 11:31:00,
2013-05-08 04:36:00,57.2,52.7,29.71,NNW,338,0.0,0.0,85,0.00,,,0.00,WUHU216HW,2013-05-08 11:36:00,
2013-05-08 04:41:00,57.2,52.4,29.71,NNW,338,0.0,0.0,84,0.00,,,0.00,WUHU216HW,2013-05-08 11:41:00,
2013-05-08 04:46:00,56.9,52.4,29.71,East,90,0.9,1.3,85,0.00,,,0.00,WUHU216HW,2013-05-08 11:46:00,
2013-05-08 04:51:00,56.5,52.4,29.71,ENE,68,0.4,1.3,86,0.00,,,0.00,WUHU216HW,2013-05-08 11:51:00,
2013-05-08 04:56:00,56.5,52.4,29.71,ESE,113,1.8,1.8,86,0.00,,,0.00,WUHU216HW,2013-05-08 11:56:00,
2013-05-08 05:01:00,56.2,52.3,29.71,ENE,68,0.7,2.0,87,0.00,,,0.00,WUHU216HW,2013-05-08 12:01:00,
2013-05-08 05:06:00,56.0,52.1,29.71,East,90,1.6,2.0,87,0.00,,,0.00,WUHU216HW,2013-05-08 12:06:00,
2013-05-08 05:11:00,55.8,51.9,29.71,ENE,68,1.3,2.0,87,0.00,,,0.00,WUHU216HW,2013-05-08 12:11:00,
2013-05-08 05:16:00,55.6,51.8,29.71,East,90,1.1,2.2,87,0.00,,,0.00,WUHU216HW,2013-05-08 12:16:00,
2013-05-08 05:21:00,55.6,51.8,29.71,East,90,0.4,2.2,87,0.00,,,0.00,WUHU216HW,2013-05-08 12:21:00,
2013-05-08 05:26:00,55.4,51.6,29.72,NE,45,0.4,2.0,87,0.00,,,0.00,WUHU216HW,2013-05-08 12:26:00,
2013-05-08 05:31:00,55.4,51.6,29.72,NE,45,0.2,2.0,87,0.00,,,0.00,WUHU216HW,2013-05-08 12:31:00,
2013-05-08 05:36:00,55.4,51.6,29.72,ENE,68,1.6,1.6,87,0.00,,,0.00,WUHU216HW,2013-05-08 12:36:00,
2013-05-08 05:41:00,55.4,51.6,29.72,ENE,68,0.4,1.6,87,0.00,,,0.00,WUHU216HW,2013-05-08 12:41:00,
2013-05-08 05:46:00,55.4,51.6,29.71,ENE,68,0.9,1.6,87,0.00,,,0.00,WUHU216HW,2013-05-08 12:46:00,
2013-05-08 05:51:00,55.3,51.4,29.72,ENE,68,0.0,1.3,87,0.00,,,0.00,WUHU216HW,2013-05-08 12:51:00,
2013-05-08 05:56:00,55.3,51.4,29.72,ENE,68,0.2,0.9,87,0.00,,,0.00,WUHU216HW,2013-05-08 12:56:00,
2013-05-08 06:01:00,55.3,51.4,29.72,NE,45,0.0,0.9,87,0.00,,,0.00,WUHU216HW,2013-05-08 13:01:00,
2013-05-08 06:06:00,55.3,51.1,29.72,NE,45,0.0,0.9,86,0.00,,,0.00,WUHU216HW,2013-05-08 13:06:00,
2013-05-08 06:10:00,55.3,51.1,29.72,NE,45,0.0,0.4,86,0.00,,,0.00,WUHU216HW,2013-05-08 13:10:00,
2013-05-08 06:16:00,55.3,51.1,29.73,North,0,0.0,0.4,86,0.00,,,0.00,WUHU216HW,2013-05-08 13:16:00,
2013-05-08 06:21:00,55.4,51.3,29.73,North,0,0.0,0.4,86,0.00,,,0.00,WUHU216HW,2013-05-08 13:21:00,
2013-05-08 06:26:00,55.6,51.5,29.73,North,0,0.0,0.0,86,0.00,,,0.00,WUHU216HW,2013-05-08 13:26:00,
2013-05-08 06:31:00,55.8,51.9,29.73,NNE,23,0.7,0.7,87,0.00,,,0.00,WUHU216HW,2013-05-08 13:31:00,
2013-05-08 06:36:00,55.8,51.9,29.73,NE,45,0.0,0.7,87,0.00,,,0.00,WUHU216HW,2013-05-08 13:36:00,
2013-05-08 06:41:00,56.2,52.0,29.73,SW,225,0.0,1.1,86,0.00,,,0.00,WUHU216HW,2013-05-08 13:41:00,
2013-05-08 06:46:00,56.5,52.4,29.74,SW,225,0.0,1.1,86,0.00,,,0.00,WUHU216HW,2013-05-08 13:46:00,
2013-05-08 06:51:00,56.9,52.8,29.74,North,0,0.2,0.4,86,0.00,,,0.00,WUHU216HW,2013-05-08 13:51:00,
2013-05-08 06:56:00,57.2,53.1,29.74,NNE,23,0.0,0.9,86,0.00,,,0.00,WUHU216HW,2013-05-08 13:56:00,
2013-05-08 07:01:00,57.4,53.3,29.74,ENE,68,0.7,0.9,86,0.00,,,0.00,WUHU216HW,2013-05-08 14:01:00,
2013-05-08 07:06:00,57.6,53.7,29.74,East,90,1.1,1.3,87,0.00,,,0.00,WUHU216HW,2013-05-08 14:06:00,
2013-05-08 07:10:00,58.9,54.7,29.74,ENE,68,0.9,1.3,86,0.00,,,0.00,WUHU216HW,2013-05-08 14:10:00,
2013-05-08 07:16:00,60.1,55.3,29.74,ENE,68,0.4,1.3,84,0.00,,,0.00,WUHU216HW,2013-05-08 14:16:00,
2013-05-08 07:20:00,61.0,54.6,29.74,ENE,68,1.1,1.1,79,0.00,,,0.00,WUHU216HW,2013-05-08 14:20:00,
2013-05-08 07:26:00,61.7,55.2,29.74,ENE,68,0.9,1.1,79,0.00,,,0.00,WUHU216HW,2013-05-08 14:26:00,
2013-05-08 07:31:00,62.6,55.3,29.74,ESE,113,1.8,1.8,77,0.00,,,0.00,WUHU216HW,2013-05-08 14:31:00,
2013-05-08 07:36:00,63.4,55.6,29.74,East,90,0.7,1.8,76,0.00,,,0.00,WUHU216HW,2013-05-08 14:36:00,
2013-05-08 07:41:00,63.5,55.8,29.74,ESE,113,3.4,3.4,76,0.00,,,0.00,WUHU216HW,2013-05-08 14:41:00,
2013-05-08 07:46:00,65.0,56.2,29.74,East,90,2.7,3.4,73,0.00,,,0.00,WUHU216HW,2013-05-08 14:46:00,
2013-05-08 07:51:00,66.2,57.3,29.75,ESE,113,1.1,3.6,73,0.00,,,0.00,WUHU216HW,2013-05-08 14:51:00,
2013-05-08 07:56:00,67.9,59.0,29.74,ENE,68,0.4,3.6,73,0.00,,,0.00,WUHU216HW,2013-05-08 14:56:00,
2013-05-08 08:01:00,68.8,56.5,29.74,ENE,68,1.8,3.6,65,0.00,,,0.00,WUHU216HW,2013-05-08 15:01:00,
2013-05-08 08:06:00,68.2,56.4,29.74,NE,45,0.7,3.6,66,0.00,,,0.00,WUHU216HW,2013-05-08 15:06:00,
2013-05-08 08:11:00,68.8,58.1,29.74,NW,315,0.4,2.5,69,0.00,,,0.00,WUHU216HW,2013-05-08 15:11:00,
2013-05-08 08:16:00,68.8,58.6,29.74,East,90,0.4,1.6,70,0.00,,,0.00,WUHU216HW,2013-05-08 15:16:00,
2013-05-08 08:21:00,70.2,59.5,29.74,ESE,113,0.9,1.3,69,0.00,,,0.00,WUHU216HW,2013-05-08 15:21:00,
2013-05-08 08:26:00,73.3,61.7,29.74,WSW,248,1.3,2.9,67,0.00,,,0.00,WUHU216HW,2013-05-08 15:26:00,
2013-05-08 08:31:00,75.6,59.8,29.74,East,90,1.8,3.6,58,0.00,,,0.00,WUHU216HW,2013-05-08 15:31:00,
2013-05-08 08:36:00,75.2,59.9,29.74,SW,225,2.5,3.6,59,0.00,,,0.00,WUHU216HW,2013-05-08 15:36:00,
2013-05-08 08:41:00,73.4,59.6,29.74,WSW,248,0.4,2.5,62,0.00,,,0.00,WUHU216HW,2013-05-08 15:41:00,
2013-05-08 08:46:00,74.0,60.1,29.74,NW,315,0.0,2.0,62,0.00,,,0.00,WUHU216HW,2013-05-08 15:46:00,
2013-05-08 08:51:00,74.9,60.1,29.74,WSW,248,2.5,3.4,60,0.00,,,0.00,WUHU216HW,2013-05-08 15:51:00,
2013-05-08 08:56:00,74.2,58.9,29.74,WSW,248,4.0,4.0,59,0.00,,,0.00,WUHU216HW,2013-05-08 15:56:00,
2013-05-08 09:01:00,73.1,56.9,29.74,SSW,203,2.2,4.0,57,0.00,,,0.00,WUHU216HW,2013-05-08 16:01:00,
2013-05-08 09:06:00,72.0,55.9,29.74,ESE,113,1.1,4.0,57,0.00,,,0.00,WUHU216HW,2013-05-08 16:06:00,
2013-05-08 09:11:00,70.7,55.7,29.74,SW,225,3.4,3.4,59,0.00,,,0.00,WUHU216HW,2013-05-08 16:11:00,
2013-05-08 09:16:00,70.0,53.6,29.74,SE,135,2.0,3.8,56,0.00,,,0.00,WUHU216HW,2013-05-08 16:16:00,
2013-05-08 09:21:00,69.7,54.7,29.74,SE,135,1.1,3.8,59,0.00,,,0.00,WUHU216HW,2013-05-08 16:21:00,
2013-05-08 09:26:00,69.8,55.4,29.74,WSW,248,3.6,6.9,60,0.00,,,0.00,WUHU216HW,2013-05-08 16:26:00,
2013-05-08 09:31:00,69.5,55.5,29.74,WSW,248,8.1,8.1,61,0.00,,,0.00,WUHU216HW,2013-05-08 16:31:00,
2013-05-08 09:36:00,69.7,55.7,29.74,WSW,248,4.3,8.1,61,0.00,,,0.00,WUHU216HW,2013-05-08 16:36:00,
2013-05-08 09:41:00,68.8,53.9,29.74,SW,225,2.5,8.1,59,0.00,,,0.00,WUHU216HW,2013-05-08 16:41:00,
2013-05-08 09:46:00,68.4,54.0,29.74,WSW,248,2.9,4.9,60,0.00,,,0.00,WUHU216HW,2013-05-08 16:46:00,
2013-05-08 09:51:00,68.0,53.6,29.74,West,270,2.9,4.9,60,0.00,,,0.00,WUHU216HW,2013-05-08 16:51:00,
2013-05-08 09:56:00,68.2,54.3,29.74,SW,225,1.8,7.6,61,0.00,,,0.00,WUHU216HW,2013-05-08 16:56:00,
2013-05-08 10:01:00,68.0,54.6,29.74,WSW,248,2.2,7.6,62,0.00,,,0.00,WUHU216HW,2013-05-08 17:01:00,
2013-05-08 10:06:00,67.3,54.7,29.74,WSW,248,2.2,6.5,64,0.00,,,0.00,WUHU216HW,2013-05-08 17:06:00,
2013-05-08 10:11:00,67.0,54.8,29.74,SW,225,3.6,3.8,65,0.00,,,0.00,WUHU216HW,2013-05-08 17:11:00,
2013-05-08 10:16:00,67.1,54.9,29.75,West,270,1.6,4.9,65,0.00,,,0.00,WUHU216HW,2013-05-08 17:16:00,
2013-05-08 10:21:00,67.1,54.9,29.74,WSW,248,1.8,4.9,65,0.00,,,0.00,WUHU216HW,2013-05-08 17:21:00,
2013-05-08 10:26:00,66.8,54.6,29.74,WSW,248,7.8,7.8,65,0.00,,,0.00,WUHU216HW,2013-05-08 17:26:00,
2013-05-08 10:31:00,67.3,54.3,29.74,SW,225,3.4,7.8,63,0.00,,,0.00,WUHU216HW,2013-05-08 17:31:00,
2013-05-08 10:36:00,67.7,54.6,29.74,West,270,2.9,7.8,63,0.00,,,0.00,WUHU216HW,2013-05-08 17:36:00,
2013-05-08 10:41:00,67.7,54.6,29.75,WSW,248,4.9,6.3,63,0.00,,,0.00,WUHU216HW,2013-05-08 17:41:00,
2013-05-08 10:46:00,68.4,55.7,29.75,SSW,203,3.8,6.3,64,0.00,,,0.00,WUHU216HW,2013-05-08 17:46:00,
2013-05-08 10:51:00,67.7,55.4,29.75,WSW,248,6.3,6.3,65,0.00,,,0.00,WUHU216HW,2013-05-08 17:51:00,
2013-05-08 10:56:00,67.3,56.0,29.75,West,270,4.5,6.3,67,0.00,,,0.00,WUHU216HW,2013-05-08 17:56:00,
2013-05-08 11:01:00,67.0,56.1,29.75,SW,225,4.7,6.3,68,0.00,,,0.00,WUHU216HW,2013-05-08 18:01:00,
2013-05-08 11:06:00,66.8,55.4,29.75,NW,315,3.6,6.0,67,0.00,,,0.00,WUHU216HW,2013-05-08 18:06:00,
2013-05-08 11:11:00,66.6,55.3,29.75,SW,225,4.5,7.2,67,0.00,,,0.00,WUHU216HW,2013-05-08 18:11:00,
2013-05-08 11:16:00,66.8,54.2,29.75,WSW,248,2.5,7.2,64,0.00,,,0.00,WUHU216HW,2013-05-08 18:16:00,
2013-05-08 11:21:00,66.2,54.1,29.75,WSW,248,2.5,6.7,65,0.00,,,0.00,WUHU216HW,2013-05-08 18:21:00,
2013-05-08 11:26:00,66.6,54.8,29.75,SSW,203,6.9,6.9,66,0.00,,,0.00,WUHU216HW,2013-05-08 18:26:00,
2013-05-08 11:31:00,67.0,54.8,29.75,WSW,248,5.8,6.9,65,0.00,,,0.00,WUHU216HW,2013-05-08 18:31:00,
2013-05-08 11:36:00,67.3,53.5,29.75,WNW,293,1.8,7.4,61,0.00,,,0.00,WUHU216HW,2013-05-08 18:36:00,
2013-05-08 11:41:00,66.8,51.6,29.75,WSW,248,3.4,7.4,58,0.00,,,0.00,WUHU216HW,2013-05-08 18:41:00,
2013-05-08 11:46:00,66.6,52.7,29.75,SW,225,2.9,4.3,61,0.00,,,0.00,WUHU216HW,2013-05-08 18:46:00,
2013-05-08 11:51:00,66.8,53.4,29.74,WSW,248,2.7,8.7,62,0.00,,,0.00,WUHU216HW,2013-05-08 18:51:00,
2013-05-08 11:56:00,67.0,53.9,29.74,WSW,248,7.6,8.7,63,0.00,,,0.00,WUHU216HW,2013-05-08 18:56:00,
2013-05-08 12:01:00,67.1,54.9,29.75,SSW,203,2.0,7.6,65,0.00,,,0.00,WUHU216HW,2013-05-08 19:01:00,
2013-05-08 12:06:00,66.8,55.0,29.74,West,270,2.5,6.5,66,0.00,,,0.00,WUHU216HW,2013-05-08 19:06:00,
2013-05-08 12:11:00,66.1,54.7,29.74,WNW,293,3.6,6.5,67,0.00,,,0.00,WUHU216HW,2013-05-08 19:11:00,
2013-05-08 12:16:00,65.7,55.3,29.74,West,270,2.5,4.9,69,0.00,,,0.00,WUHU216HW,2013-05-08 19:16:00,
2013-05-08 12:21:00,66.4,55.5,29.74,West,270,3.1,7.4,68,0.00,,,0.00,WUHU216HW,2013-05-08 19:21:00,
2013-05-08 12:26:00,66.4,55.5,29.74,NNW,338,1.8,7.4,68,0.00,,,0.00,WUHU216HW,2013-05-08 19:26:00,
2013-05-08 12:31:00,66.4,55.1,29.74,WSW,248,3.1,5.6,67,0.00,,,0.00,WUHU216HW,2013-05-08 19:31:00,
2013-05-08 12:36:00,65.9,55.5,29.74,SW,225,3.6,5.8,69,0.00,,,0.00,WUHU216HW,2013-05-08 19:36:00,
2013-05-08 12:41:00,66.2,55.4,29.74,SW,225,6.0,8.9,68,0.00,,,0.00,WUHU216HW,2013-05-08 19:41:00,
2013-05-08 12:46:00,66.4,55.9,29.73,WSW,248,5.8,8.9,69,0.00,,,0.00,WUHU216HW,2013-05-08 19:46:00,
2013-05-08 12:51:00,66.6,55.7,29.73,WSW,248,6.9,7.8,68,0.00,,,0.00,WUHU216HW,2013-05-08 19:51:00,
2013-05-08 12:56:00,66.6,55.7,29.73,SW,225,5.6,9.8,68,0.00,,,0.00,WUHU216HW,2013-05-08 19:56:00,
2013-05-08 13:01:00,66.6,56.1,29.73,SW,225,5.1,9.8,69,0.00,,,0.00,WUHU216HW,2013-05-08 20:01:00,
2013-05-08 13:06:00,66.8,56.3,29.74,WNW,293,3.8,9.8,69,0.00,,,0.00,WUHU216HW,2013-05-08 20:06:00,
2013-05-08 13:11:00,66.8,56.3,29.74,NNW,338,2.7,9.8,69,0.00,,,0.00,WUHU216HW,2013-05-08 20:11:00,
2013-05-08 13:16:00,67.0,56.1,29.74,WSW,248,3.8,8.5,68,0.00,,,0.00,WUHU216HW,2013-05-08 20:16:00,
2013-05-08 13:21:00,67.1,55.8,29.74,WSW,248,6.3,8.5,67,0.00,,,0.00,WUHU216HW,2013-05-08 20:21:00,
2013-05-08 13:26:00,66.8,56.3,29.74,West,270,2.0,6.9,69,0.00,,,0.00,WUHU216HW,2013-05-08 20:26:00,
2013-05-08 13:31:00,66.8,55.9,29.74,West,270,1.8,7.6,68,0.00,,,0.00,WUHU216HW,2013-05-08 20:31:00,
2013-05-08 13:36:00,66.4,56.3,29.74,SW,225,6.9,7.6,70,0.00,,,0.00,WUHU216HW,2013-05-08 20:36:00,
2013-05-08 13:41:00,66.6,56.5,29.74,WNW,293,2.2,6.9,70,0.00,,,0.00,WUHU216HW,2013-05-08 20:41:00,
2013-05-08 13:46:00,67.0,56.9,29.74,SW,225,6.3,8.1,70,0.00,,,0.00,WUHU216HW,2013-05-08 20:46:00,
2013-05-08 13:51:00,66.8,56.7,29.74,WSW,248,4.9,8.1,70,0.00,,,0.00,WUHU216HW,2013-05-08 20:51:00,
2013-05-08 13:56:00,67.1,57.1,29.74,NNW,338,2.7,8.5,70,0.00,,,0.00,WUHU216HW,2013-05-08 20:56:00,
2013-05-08 14:01:00,66.6,56.5,29.74,West,270,3.1,8.5,70,0.00,,,0.00,WUHU216HW,2013-05-08 21:01:00,
2013-05-08 14:06:00,66.4,56.3,29.74,NNW,338,5.1,5.1,70,0.00,,,0.00,WUHU216HW,2013-05-08 21:06:00,
2013-05-08 14:11:00,66.1,56.3,29.74,WSW,248,3.1,5.1,71,0.00,,,0.00,WUHU216HW,2013-05-08 21:11:00,
2013-05-08 14:16:00,65.9,56.3,29.74,WNW,293,2.2,6.3,71,0.00,,,0.00,WUHU216HW,2013-05-08 21:16:00,
2013-05-08 14:21:00,65.5,55.5,29.74,SSW,203,4.0,7.8,70,0.00,,,0.00,WUHU216HW,2013-05-08 21:21:00,
2013-05-08 14:26:00,65.5,55.5,29.74,SW,225,4.7,8.5,70,0.00,,,0.00,WUHU216HW,2013-05-08 21:26:00,
2013-05-08 14:31:00,65.9,55.0,29.74,NNW,338,4.3,8.5,68,0.00,,,0.00,WUHU216HW,2013-05-08 21:31:00,
2013-05-08 14:36:00,65.9,55.5,29.74,NW,315,4.0,6.9,69,0.00,,,0.00,WUHU216HW,2013-05-08 21:36:00,
2013-05-08 14:41:00,65.7,55.7,29.74,WSW,248,4.7,6.9,70,0.00,,,0.00,WUHU216HW,2013-05-08 21:41:00,
2013-05-08 14:46:00,66.4,56.7,29.74,SW,225,3.1,6.9,71,0.00,,,0.00,WUHU216HW,2013-05-08 21:46:00,
2013-05-08 14:51:00,66.4,56.7,29.74,WNW,293,3.8,8.3,71,0.00,,,0.00,WUHU216HW,2013-05-08 21:51:00,
2013-05-08 14:56:00,66.2,56.9,29.74,West,270,2.7,8.3,72,0.00,,,0.00,WUHU216HW,2013-05-08 21:56:00,
2013-05-08 15:01:00,66.1,56.3,29.73,SW,225,4.0,6.9,71,0.00,,,0.00,WUHU216HW,2013-05-08 22:01:00,
2013-05-08 15:06:00,65.5,56.6,29.74,WSW,248,1.6,6.9,73,0.00,,,0.00,WUHU216HW,2013-05-08 22:06:00,
2013-05-08 15:11:00,66.1,56.8,29.73,SSW,203,3.1,6.9,72,0.00,,,0.00,WUHU216HW,2013-05-08 22:11:00,
2013-05-08 15:16:00,65.9,57.0,29.74,SW,225,2.9,6.9,73,0.00,,,0.00,WUHU216HW,2013-05-08 22:16:00,
2013-05-08 15:21:00,66.1,57.5,29.73,WSW,248,2.9,6.9,74,0.00,,,0.00,WUHU216HW,2013-05-08 22:21:00,
2013-05-08 15:26:00,65.9,57.0,29.73,SW,225,3.6,6.9,73,0.00,,,0.00,WUHU216HW,2013-05-08 22:26:00,
2013-05-08 15:31:00,66.2,57.7,29.73,SW,225,5.1,5.4,74,0.00,,,0.00,WUHU216HW,2013-05-08 22:31:00,
2013-05-08 15:36:00,66.6,57.2,29.73,SW,225,2.2,5.6,72,0.00,,,0.00,WUHU216HW,2013-05-08 22:36:00,
2013-05-08 15:41:00,66.6,57.2,29.73,NNE,23,4.3,6.3,72,0.00,,,0.00,WUHU216HW,2013-05-08 22:41:00,
2013-05-08 15:46:00,65.7,56.4,29.73,West,270,5.4,6.3,72,0.00,,,0.00,WUHU216HW,2013-05-08 22:46:00,
2013-05-08 15:51:00,64.6,56.5,29.73,West,270,1.8,6.3,75,0.00,,,0.00,WUHU216HW,2013-05-08 22:51:00,
2013-05-08 15:56:00,65.2,57.1,29.73,WSW,248,4.5,6.3,75,0.00,,,0.00,WUHU216HW,2013-05-08 22:56:00,
2013-05-08 16:01:00,64.6,56.5,29.73,SW,225,3.4,5.1,75,0.00,,,0.00,WUHU216HW,2013-05-08 23:01:00,
2013-05-08 16:06:00,64.3,56.5,29.73,West,270,1.8,5.1,76,0.00,,,0.00,WUHU216HW,2013-05-08 23:06:00,
2013-05-08 16:11:00,64.4,56.7,29.73,WNW,293,4.0,4.7,76,0.00,,,0.00,WUHU216HW,2013-05-08 23:11:00,
2013-05-08 16:16:00,64.6,56.9,29.73,NW,315,1.8,6.5,76,0.00,,,0.00,WUHU216HW,2013-05-08 23:16:00,
2013-05-08 16:21:00,65.5,57.0,29.72,West,270,4.0,6.5,74,0.00,,,0.00,WUHU216HW,2013-05-08 23:21:00,
2013-05-08 16:26:00,65.9,56.3,29.73,SW,225,4.0,5.1,71,0.00,,,0.00,WUHU216HW,2013-05-08 23:26:00,
2013-05-08 16:31:00,65.5,56.3,29.73,NNW,338,2.5,5.1,72,0.00,,,0.00,WUHU216HW,2013-05-08 23:31:00,
2013-05-08 16:36:00,65.5,56.3,29.72,West,270,4.0,5.6,72,0.00,,,0.00,WUHU216HW,2013-05-08 23:36:00,
2013-05-08 16:41:00,65.0,55.8,29.73,WSW,248,4.0,5.6,72,0.00,,,0.00,WUHU216HW,2013-05-08 23:41:00,
2013-05-08 16:46:00,64.8,56.4,29.73,West,270,4.0,7.4,74,0.00,,,0.00,WUHU216HW,2013-05-08 23:46:00,
2013-05-08 16:51:00,65.0,56.2,29.73,SW,225,3.1,7.4,73,0.00,,,0.00,WUHU216HW,2013-05-08 23:51:00,
2013-05-08 16:56:00,65.0,56.2,29.73,SSW,203,1.1,6.7,73,0.00,,,0.00,WUHU216HW,2013-05-08 23:56:00,
2013-05-08 17:01:00,64.8,55.6,29.72,SSW,203,2.9,6.7,72,0.00,,,0.00,WUHU216HW,2013-05-09 00:01:00,
2013-05-08 17:06:00,64.8,55.6,29.72,West,270,2.9,5.1,72,0.00,,,0.00,WUHU216HW,2013-05-09 00:06:00,
2013-05-08 17:11:00,65.2,56.3,29.72,West,270,6.3,6.3,73,0.00,,,0.00,WUHU216HW,2013-05-09 00:11:00,
2013-05-08 17:16:00,65.2,55.9,29.72,SW,225,3.4,6.3,72,0.00,,,0.00,WUHU216HW,2013-05-09 00:16:00,
2013-05-08 17:21:00,65.0,55.0,29.72,WNW,293,1.6,6.3,70,0.00,,,0.00,WUHU216HW,2013-05-09 00:21:00,
2013-05-08 17:26:00,64.3,54.4,29.72,West,270,1.8,6.3,70,0.00,,,0.00,WUHU216HW,2013-05-09 00:26:00,
2013-05-08 17:31:00,64.1,54.2,29.71,West,270,1.8,5.6,70,0.00,,,0.00,WUHU216HW,2013-05-09 00:31:00,
2013-05-08 17:36:00,63.9,54.7,29.72,WSW,248,2.9,5.6,72,0.00,,,0.00,WUHU216HW,2013-05-09 00:36:00,
2013-05-08 17:41:00,63.7,54.9,29.72,WSW,248,2.2,3.8,73,0.00,,,0.00,WUHU216HW,2013-05-09 00:41:00,
2013-05-08 17:46:00,63.5,54.4,29.72,North,0,3.1,4.7,72,0.00,,,0.00,WUHU216HW,2013-05-09 00:46:00,
2013-05-08 17:51:00,63.0,53.5,29.72,WSW,248,4.0,7.2,71,0.00,,,0.00,WUHU216HW,2013-05-09 00:51:00,
2013-05-08 17:56:00,62.8,53.6,29.72,SSW,203,1.3,7.2,72,0.00,,,0.00,WUHU216HW,2013-05-09 00:56:00,
2013-05-08 18:01:00,63.0,54.2,29.71,WSW,248,2.2,4.9,73,0.00,,,0.00,WUHU216HW,2013-05-09 01:01:00,
2013-05-08 18:06:00,63.0,53.8,29.71,West,270,3.4,4.9,72,0.00,,,0.00,WUHU216HW,2013-05-09 01:06:00,
2013-05-08 18:11:00,63.0,53.5,29.71,SW,225,3.4,4.0,71,0.00,,,0.00,WUHU216HW,2013-05-09 01:11:00,
2013-05-08 18:16:00,63.0,53.8,29.71,WNW,293,1.8,5.4,72,0.00,,,0.00,WUHU216HW,2013-05-09 01:16:00,
2013-05-08 18:21:00,63.4,53.8,29.71,SSW,203,2.5,5.4,71,0.00,,,0.00,WUHU216HW,2013-05-09 01:21:00,
2013-05-08 18:26:00,63.2,54.0,29.71,West,270,2.2,4.3,72,0.00,,,0.00,WUHU216HW,2013-05-09 01:26:00,
2013-05-08 18:31:00,63.2,54.0,29.71,West,270,1.1,4.3,72,0.00,,,0.00,WUHU216HW,2013-05-09 01:31:00,
2013-05-08 18:36:00,63.4,54.2,29.71,WNW,293,2.9,4.0,72,0.00,,,0.00,WUHU216HW,2013-05-09 01:36:00,
2013-05-08 18:41:00,63.2,54.4,29.71,West,270,1.1,4.0,73,0.00,,,0.00,WUHU216HW,2013-05-09 01:41:00,
2013-05-08 18:46:00,63.0,54.2,29.72,SW,225,1.8,4.0,73,0.00,,,0.00,WUHU216HW,2013-05-09 01:46:00,
2013-05-08 18:51:00,62.8,54.0,29.71,NW,315,1.6,4.0,73,0.00,,,0.00,WUHU216HW,2013-05-09 01:51:00,
2013-05-08 18:56:00,62.3,53.5,29.71,SW,225,7.6,7.6,73,0.00,,,0.00,WUHU216HW,2013-05-09 01:56:00,
2013-05-08 19:01:00,62.3,53.5,29.71,WSW,248,3.4,7.6,73,0.00,,,0.00,WUHU216HW,2013-05-09 02:01:00,
2013-05-08 19:06:00,62.1,53.4,29.71,WSW,248,2.5,7.6,73,0.00,,,0.00,WUHU216HW,2013-05-09 02:06:00,
2013-05-08 19:11:00,61.9,53.2,29.71,SW,225,3.4,3.4,73,0.00,,,0.00,WUHU216HW,2013-05-09 02:11:00,
2013-05-08 19:16:00,61.6,52.8,29.71,West,270,1.8,3.4,73,0.00,,,0.00,WUHU216HW,2013-05-09 02:16:00,
2013-05-08 19:21:00,61.6,53.2,29.71,WNW,293,1.1,2.7,74,0.00,,,0.00,WUHU216HW,2013-05-09 02:21:00,
2013-05-08 19:26:00,61.6,53.2,29.71,West,270,1.1,4.0,74,0.00,,,0.00,WUHU216HW,2013-05-09 02:26:00,
2013-05-08 19:31:00,61.2,53.3,29.71,WSW,248,2.0,4.0,75,0.00,,,0.00,WUHU216HW,2013-05-09 02:31:00,
2013-05-08 19:36:00,61.2,53.3,29.71,WSW,248,1.1,3.1,75,0.00,,,0.00,WUHU216HW,2013-05-09 02:36:00,
2013-05-08 19:41:00,61.0,53.1,29.71,WSW,248,2.5,3.6,75,0.00,,,0.00,WUHU216HW,2013-05-09 02:41:00,
2013-05-08 19:46:00,60.8,53.3,29.71,SW,225,1.1,3.6,76,0.00,,,0.00,WUHU216HW,2013-05-09 02:46:00,
2013-05-08 19:51:00,60.8,53.3,29.71,West,270,1.1,2.5,76,0.00,,,0.00,WUHU216HW,2013-05-09 02:51:00,
2013-05-08 19:56:00,60.8,53.3,29.71,WSW,248,0.9,2.2,76,0.00,,,0.00,WUHU216HW,2013-05-09 02:56:00,
2013-05-08 20:01:00,60.8,53.3,29.70,West,270,0.9,2.2,76,0.00,,,0.00,WUHU216HW,2013-05-09 03:01:00,
2013-05-08 20:06:00,60.8,53.3,29.71,SW,225,1.3,1.3,76,0.00,,,0.00,WUHU216HW,2013-05-09 03:06:00,
2013-05-08 20:11:00,60.8,53.3,29.70,WSW,248,0.7,2.5,76,0.00,,,0.00,WUHU216HW,2013-05-09 03:11:00,
2013-05-08 20:16:00,60.8,53.3,29.70,WSW,248,1.1,2.5,76,0.00,,,0.00,WUHU216HW,2013-05-09 03:16:00,
2013-05-08 20:21:00,60.7,53.1,29.71,WSW,248,1.8,3.8,76,0.00,,,0.00,WUHU216HW,2013-05-09 03:21:00,
2013-05-08 20:26:00,60.7,53.1,29.70,WSW,248,0.9,3.8,76,0.00,,,0.00,WUHU216HW,2013-05-09 03:26:00,
2013-05-08 20:31:00,60.7,53.1,29.71,WSW,248,1.1,3.4,76,0.00,,,0.00,WUHU216HW,2013-05-09 03:31:00,
2013-05-08 20:36:00,60.7,53.5,29.71,NW,315,0.0,2.9,77,0.00,,,0.00,WUHU216HW,2013-05-09 03:36:00,
2013-05-08 20:41:00,60.7,53.5,29.71,South,180,0.0,2.7,77,0.00,,,0.00,WUHU216HW,2013-05-09 03:41:00,
2013-05-08 20:46:00,60.5,53.6,29.71,WSW,248,0.4,2.5,78,0.00,,,0.00,WUHU216HW,2013-05-09 03:46:00,
2013-05-08 20:51:00,60.5,53.6,29.71,West,270,0.0,2.5,78,0.00,,,0.00,WUHU216HW,2013-05-09 03:51:00,
2013-05-08 20:56:00,60.5,53.6,29.71,WSW,248,0.4,1.3,78,0.00,,,0.00,WUHU216HW,2013-05-09 03:56:00,
2013-05-08 21:01:00,60.3,53.8,29.71,WSW,248,0.2,1.1,79,0.00,,,0.00,WUHU216HW,2013-05-09 04:01:00,
2013-05-08 21:06:00,60.3,53.8,29.71,WSW,248,0.0,1.1,79,0.00,,,0.00,WUHU216HW,2013-05-09 04:06:00,
2013-05-08 21:11:00,60.1,53.6,29.71,ESE,113,1.8,1.8,79,0.00,,,0.00,WUHU216HW,2013-05-09 04:11:00,
2013-05-08 21:16:00,60.1,54.6,29.72,East,90,1.3,2.2,82,0.00,,,0.00,WUHU216HW,2013-05-09 04:16:00,
2013-05-08 21:21:00,60.1,54.6,29.72,ENE,68,0.9,2.2,82,0.00,,,0.00,WUHU216HW,2013-05-09 04:21:00,
2013-05-08 21:26:00,59.9,54.5,29.72,ENE,68,0.7,1.3,82,0.00,,,0.00,WUHU216HW,2013-05-09 04:26:00,
2013-05-08 21:31:00,59.8,53.6,29.72,East,90,1.1,1.8,80,0.00,,,0.00,WUHU216HW,2013-05-09 04:31:00,
2013-05-08 21:36:00,59.8,53.6,29.72,NE,45,0.9,2.0,80,0.00,,,0.00,WUHU216HW,2013-05-09 04:36:00,
2013-05-08 21:41:00,59.6,53.5,29.72,ENE,68,1.8,2.7,80,0.00,,,0.00,WUHU216HW,2013-05-09 04:41:00,
2013-05-08 21:46:00,59.4,53.3,29.72,NE,45,1.6,2.7,80,0.00,,,0.00,WUHU216HW,2013-05-09 04:46:00,
2013-05-08 21:51:00,59.4,53.3,29.72,ENE,68,2.7,3.6,80,0.00,,,0.00,WUHU216HW,2013-05-09 04:51:00,
2013-05-08 21:56:00,59.2,53.1,29.72,NE,45,2.0,3.6,80,0.00,,,0.00,WUHU216HW,2013-05-09 04:56:00,
2013-05-08 22:01:00,59.2,53.1,29.73,ENE,68,2.5,3.4,80,0.00,,,0.00,WUHU216HW,2013-05-09 05:01:00,
2013-05-08 22:06:00,59.0,53.3,29.73,ENE,68,1.8,3.4,81,0.00,,,0.00,WUHU216HW,2013-05-09 05:06:00,
2013-05-08 22:11:00,59.0,53.3,29.73,East,90,2.5,3.4,81,0.00,,,0.00,WUHU216HW,2013-05-09 05:11:00,
2013-05-08 22:16:00,59.0,53.6,29.73,ENE,68,2.2,3.8,82,0.00,,,0.00,WUHU216HW,2013-05-09 05:16:00,
2013-05-08 22:21:00,59.0,53.6,29.73,East,90,2.2,3.8,82,0.00,,,0.00,WUHU216HW,2013-05-09 05:21:00,
2013-05-08 22:26:00,58.9,53.4,29.73,ENE,68,1.8,3.1,82,0.00,,,0.00,WUHU216HW,2013-05-09 05:26:00,
2013-05-08 22:31:00,58.7,53.2,29.73,East,90,1.8,3.4,82,0.00,,,0.00,WUHU216HW,2013-05-09 05:31:00,
2013-05-08 22:36:00,58.7,53.2,29.73,ENE,68,3.1,4.0,82,0.00,,,0.00,WUHU216HW,2013-05-09 05:36:00,
2013-05-08 22:41:00,58.5,53.0,29.73,ESE,113,2.0,4.0,82,0.00,,,0.00,WUHU216HW,2013-05-09 05:41:00,
2013-05-08 22:46:00,58.5,53.0,29.73,NE,45,1.1,4.5,82,0.00,,,0.00,WUHU216HW,2013-05-09 05:46:00,
2013-05-08 22:51:00,58.5,53.0,29.73,ENE,68,2.2,4.5,82,0.00,,,0.00,WUHU216HW,2013-05-09 05:51:00,
2013-05-08 22:56:00,58.5,53.0,29.74,East,90,1.3,4.0,82,0.00,,,0.00,WUHU216HW,2013-05-09 05:56:00,
2013-05-08 23:01:00,58.3,52.8,29.73,East,90,1.1,4.0,82,0.00,,,0.00,WUHU216HW,2013-05-09 06:01:00,
2013-05-08 23:06:00,58.3,53.2,29.73,NNE,23,1.6,4.5,83,0.00,,,0.00,WUHU216HW,2013-05-09 06:06:00,
2013-05-08 23:11:00,58.3,53.2,29.73,ENE,68,1.8,4.5,83,0.00,,,0.00,WUHU216HW,2013-05-09 06:11:00,
2013-05-08 23:16:00,58.3,53.2,29.73,NE,45,3.6,3.8,83,0.00,,,0.00,WUHU216HW,2013-05-09 06:16:00,
2013-05-08 23:21:00,58.3,53.2,29.73,ENE,68,3.1,5.6,83,0.00,,,0.00,WUHU216HW,2013-05-09 06:21:00,
2013-05-08 23:26:00,58.3,53.2,29.73,ENE,68,1.6,5.6,83,0.00,,,0.00,WUHU216HW,2013-05-09 06:26:00,
2013-05-08 23:31:00,58.3,53.2,29.73,ENE,68,2.9,3.8,83,0.00,,,0.00,WUHU216HW,2013-05-09 06:31:00,
2013-05-08 23:36:00,58.1,53.0,29.73,East,90,1.8,3.8,83,0.00,,,0.00,WUHU216HW,2013-05-09 06:36:00,
2013-05-08 23:41:00,58.0,52.8,29.73,ESE,113,2.2,3.8,83,0.00,,,0.00,WUHU216HW,2013-05-09 06:41:00,
2013-05-08 23:46:00,58.0,52.8,29.73,East,90,1.3,3.8,83,0.00,,,0.00,WUHU216HW,2013-05-09 06:46:00,
2013-05-08 23:51:00,58.0,52.8,29.73,East,90,0.7,2.7,83,0.00,,,0.00,WUHU216HW,2013-05-09 06:51:00,
2013-05-08 23:56:00,58.0,52.8,29.74,ENE,68,2.0,2.0,83,0.00,,,0.00,WUHU216HW,2013-05-09 06:56:00,